This is the latest recevied weather packets stored in our database for station/object KG4YZY-1. If no packets are shown the sender has not sent any weather packets the latest 10 day(s).
| Time | Temp. | Humidity | Pressure | Rain* | Wind** | Luminosity | Snow |
|---|---|---|---|---|---|---|---|
| 1787837403 | 26.67° C | 81% | 1019.2 hPa | 0 mm | - | - | - |
| 1787837104 | 27.22° C | 88% | 1019 hPa | 0 mm | - | - | - |
| 1787836804 | 26.67° C | 88% | 1018.6 hPa | 0 mm | - | - | - |
| 1787836503 | 26.67° C | 89% | 1018.4 hPa | 0 mm | - | - | - |
| 1787836204 | 26.11° C | 90% | 1018.2 hPa | 0 mm | - | - | - |
| 1787835903 | 26.11° C | 90% | 1018.2 hPa | 0 mm | - | - | - |
| 1787835603 | 26.11° C | 91% | 1018.1 hPa | 0 mm | - | - | - |
| 1787835303 | 25.56° C | 91% | 1018 hPa | 0 mm | - | - | - |
| 1787835003 | 25.56° C | 91% | 1018 hPa | 0 mm | - | - | - |
| 1787834704 | 25° C | 91% | 1018.1 hPa | 0 mm | - | - | - |
| 1787834403 | 25° C | 92% | 1018.1 hPa | 0 mm | - | - | - |
| 1787834104 | 25° C | 92% | 1018.1 hPa | 0 mm | - | - | - |
| 1787833803 | 25° C | 92% | 1017.9 hPa | 0 mm | - | - | - |
| 1787833504 | 24.44° C | 92% | 1017.8 hPa | 0 mm | - | - | - |
| 1787833204 | 24.44° C | 92% | 1017.7 hPa | 0 mm | - | - | - |
| 1787832904 | 24.44° C | 92% | 1017.8 hPa | 0 mm | - | - | - |
| 1787832604 | 24.44° C | 92% | 1018 hPa | 0 mm | - | - | - |
| 1787832304 | 23.89° C | 92% | 1018 hPa | 0 mm | - | - | - |
| 1787832003 | 23.89° C | 92% | 1018 hPa | 0 mm | - | - | - |
| 1787831703 | 23.89° C | 92% | 1018 hPa | 0 mm | - | - | - |
| 1787831403 | 23.89° C | 92% | 1018 hPa | 0 mm | - | - | - |
| 1787831104 | 23.89° C | 92% | 1017.9 hPa | 0 mm | - | - | - |
| 1787830804 | 23.89° C | 92% | 1017.9 hPa | 0 mm | - | - | - |
| 1787830504 | 23.89° C | 92% | 1017.9 hPa | 0 mm | - | - | - |
| 1787830203 | 23.89° C | 92% | 1017.8 hPa | 0 mm | - | - | - |
* Rain latest hour (hover to see other rain measurements)
** Current wind speed in m/s (hover to see current wind gust speed)